• In Deutschland
  • Länderverzeichnis
  • Für 7 Tage
  • Wassertemperatur
  • Satellitenkarten
  • Wetterkarte
  • Widgets
  • user-avatar
    Anmelden

    Stündliche Wetter Hamminkeln

    Heute, 20 September, Donnerstag

    Zeit Temperatur Niederschläge Wind Luftdruck Luftfeuchtigkeit
    00:00 +19°C° 0 mm 3 m/S 761 mmHg 75%
    01:00 +18°C° 0 mm 3 m/S 761 mmHg 77%
    02:00 +18°C° 0 mm 3 m/S 761 mmHg 79%
    03:00 +18°C° 0 mm 3 m/S 761 mmHg 80%
    04:00 +18°C° 0 mm 3 m/S 761 mmHg 81%
    05:00 +17°C° 0 mm 3 m/S 761 mmHg 81%
    06:00 +17°C° 0 mm 4 m/S 761 mmHg 81%
    07:00 +19°C° 0 mm 4 m/S 761 mmHg 75%
    08:00 +21°C° 0 mm 5 m/S 760 mmHg 69%
    09:00 +22°C° 0 mm 6 m/S 760 mmHg 62%
    10:00 +23°C° 0 mm 6 m/S 760 mmHg 59%
    11:00 +24°C° 0 mm 6 m/S 760 mmHg 55%
    12:00 +26°C° 0 mm 6 m/S 760 mmHg 51%
    13:00 +26°C° 0 mm 6 m/S 759 mmHg 50%
    14:00 +26°C° 0 mm 6 m/S 759 mmHg 49%
    15:00 +27°C° 0 mm 5 m/S 758 mmHg 48%
    16:00 +25°C° 0 mm 5 m/S 758 mmHg 53%
    17:00 +23°C° 0 mm 4 m/S 758 mmHg 57%
    18:00 +22°C° 0 mm 3 m/S 757 mmHg 61%
    19:00 +22°C° 0 mm 4 m/S 757 mmHg 62%
    20:00 +21°C° 0 mm 4 m/S 756 mmHg 63%
    21:00 +21°C° 0 mm 4 m/S 756 mmHg 64%
    22:00 +21°C° 0 mm 5 m/S 755 mmHg 62%
    23:00 +21°C° 0 mm 5 m/S 755 mmHg 60%

    Morgen, 21 September, Freitag

    Zeit Temperatur Niederschläge Wind Luftdruck Luftfeuchtigkeit
    00:00 +21°C° 0 mm 5 m/S 754 mmHg 58%
    01:00 +21°C° 0 mm 6 m/S 753 mmHg 56%
    02:00 +22°C° 0 mm 6 m/S 752 mmHg 54%
    03:00 +22°C° 0 mm 7 m/S 751 mmHg 53%
    04:00 +22°C° 0 mm 7 m/S 751 mmHg 53%
    05:00 +22°C° 0 mm 8 m/S 751 mmHg 54%
    06:00 +22°C° 0 mm 9 m/S 750 mmHg 55%
    07:00 +19°C° 0.8 mm 9 m/S 751 mmHg 61%
    08:00 +17°C° 0.8 mm 8 m/S 752 mmHg 67%
    09:00 +16°C° 0.8 mm 8 m/S 753 mmHg 73%
    10:00 +16°C° 0 mm 8 m/S 754 mmHg 63%
    11:00 +17°C° 0 mm 9 m/S 755 mmHg 53%
    12:00 +18°C° 0 mm 9 m/S 756 mmHg 43%
    13:00 +18°C° 0 mm 9 m/S 756 mmHg 41%
    14:00 +17°C° 0 mm 9 m/S 757 mmHg 39%
    15:00 +17°C° 0 mm 8 m/S 757 mmHg 37%
    16:00 +16°C° 0 mm 8 m/S 758 mmHg 41%
    17:00 +15°C° 0 mm 7 m/S 758 mmHg 45%
    18:00 +14°C° 0 mm 6 m/S 759 mmHg 49%
    19:00 +14°C° 0 mm 6 m/S 759 mmHg 52%
    20:00 +14°C° 0 mm 6 m/S 760 mmHg 55%
    21:00 +13°C° 0 mm 6 m/S 760 mmHg 59%
    22:00 +13°C° 0 mm 6 m/S 760 mmHg 61%
    23:00 +13°C° 0 mm 6 m/S 761 mmHg 63%

    übermorgen, 22 September, Samstag

    Zeit Temperatur Niederschläge Wind Luftdruck Luftfeuchtigkeit
    00:00 +12°C° 0 mm 5 m/S 761 mmHg 66%
    01:00 +12°C° 0 mm 5 m/S 761 mmHg 67%
    02:00 +12°C° 0 mm 5 m/S 761 mmHg 68%
    03:00 +12°C° 0 mm 5 m/S 762 mmHg 70%
    04:00 +10°C° 0 mm 5 m/S 762 mmHg 70%
    05:00 +10°C° 0 mm 5 m/S 762 mmHg 71%
    06:00 +10°C° 0 mm 5 m/S 762 mmHg 72%
    07:00 +12°C° 0 mm 5 m/S 763 mmHg 67%
    08:00 +14°C° 0 mm 5 m/S 763 mmHg 62%
    09:00 +15°C° 0 mm 6 m/S 763 mmHg 57%
    10:00 +15°C° 0.1 mm 6 m/S 763 mmHg 54%
    11:00 +16°C° 0.1 mm 6 m/S 763 mmHg 51%
    12:00 +17°C° 0.1 mm 6 m/S 763 mmHg 48%
    13:00 +17°C° 0 mm 6 m/S 763 mmHg 48%
    14:00 +16°C° 0 mm 6 m/S 763 mmHg 48%
    15:00 +16°C° 0 mm 5 m/S 763 mmHg 48%
    16:00 +15°C° 0 mm 5 m/S 763 mmHg 51%
    17:00 +15°C° 0 mm 4 m/S 764 mmHg 54%
    18:00 +14°C° 0 mm 3 m/S 764 mmHg 57%
    19:00 +14°C° 0 mm 2 m/S 764 mmHg 61%
    20:00 +13°C° 0 mm 2 m/S 764 mmHg 64%
    21:00 +13°C° 0 mm 2 m/S 764 mmHg 68%
    22:00 +13°C° 0 mm 2 m/S 764 mmHg 68%
    23:00 +13°C° 0 mm 2 m/S 763 mmHg 69%

    23 September, Sonntag

    Zeit Temperatur Niederschläge Wind Luftdruck Luftfeuchtigkeit
    00:00 +13°C° 0 mm 2 m/S 763 mmHg 69%
    01:00 +12°C° 0.6 mm 2 m/S 762 mmHg 74%
    02:00 +12°C° 0.6 mm 2 m/S 762 mmHg 78%
    03:00 +12°C° 0.6 mm 2 m/S 761 mmHg 83%
    04:00 +11°C° 0.2 mm 3 m/S 760 mmHg 84%
    05:00 +11°C° 0.2 mm 3 m/S 759 mmHg 85%
    06:00 +11°C° 0.2 mm 4 m/S 758 mmHg 86%
    07:00 +11°C° 0.8 mm 4 m/S 757 mmHg 86%
    08:00 +12°C° 0.8 mm 5 m/S 755 mmHg 86%
    09:00 +11°C° 0.8 mm 6 m/S 754 mmHg 86%
    10:00 +14°C° 2.1 mm 6 m/S 752 mmHg 88%
    11:00 +15°C° 2.1 mm 7 m/S 751 mmHg 90%
    12:00 +17°C° 2.1 mm 7 m/S 749 mmHg 92%
    13:00 +18°C° 1.5 mm 7 m/S 748 mmHg 90%
    14:00 +20°C° 1.5 mm 8 m/S 746 mmHg 88%
    15:00 +21°C° 1.5 mm 8 m/S 745 mmHg 86%
    16:00 +20°C° 1.3 mm 8 m/S 743 mmHg 83%
    17:00 +18°C° 1.3 mm 9 m/S 742 mmHg 80%
    18:00 +18°C° 1.3 mm 9 m/S 740 mmHg 76%
    19:00 +16°C° 0.8 mm 8 m/S 740 mmHg 78%
    20:00 +15°C° 0.8 mm 8 m/S 740 mmHg 80%
    21:00 +12°C° 0.8 mm 8 m/S 740 mmHg 82%
    22:00 +12°C° 0.8 mm 9 m/S 743 mmHg 80%
    23:00 +11°C° 0.8 mm 11 m/S 746 mmHg 79%

    24 September, Montag

    Zeit Temperatur Niederschläge Wind Luftdruck Luftfeuchtigkeit
    00:00 +9°C° 0.8 mm 13 m/S 749 mmHg 77%
    01:00 +9°C° 0.1 mm 11 m/S 752 mmHg 75%
    02:00 +10°C° 0.1 mm 9 m/S 755 mmHg 73%
    03:00 +10°C° 0.1 mm 8 m/S 758 mmHg 70%
    04:00 +10°C° 0 mm 7 m/S 760 mmHg 70%
    05:00 +10°C° 0 mm 7 m/S 761 mmHg 70%
    06:00 +10°C° 0 mm 6 m/S 762 mmHg 69%
    07:00 +10°C° 0.1 mm 7 m/S 763 mmHg 66%
    08:00 +11°C° 0.1 mm 7 m/S 765 mmHg 62%
    09:00 +12°C° 0.1 mm 8 m/S 766 mmHg 59%
    10:00 +12°C° 0.1 mm 8 m/S 767 mmHg 56%
    11:00 +13°C° 0.1 mm 8 m/S 768 mmHg 54%
    12:00 +13°C° 0.1 mm 8 m/S 768 mmHg 52%
    13:00 +13°C° 0.1 mm 8 m/S 769 mmHg 51%
    14:00 +13°C° 0.1 mm 8 m/S 769 mmHg 51%
    15:00 +14°C° 0.1 mm 7 m/S 770 mmHg 51%
    16:00 +13°C° 0 mm 6 m/S 770 mmHg 55%
    17:00 +12°C° 0 mm 5 m/S 771 mmHg 60%
    18:00 +10°C° 0 mm 4 m/S 771 mmHg 65%
    19:00 +10°C° 0 mm 4 m/S 772 mmHg 68%
    20:00 +10°C° 0 mm 4 m/S 772 mmHg 71%
    21:00 +8°C° 0 mm 4 m/S 772 mmHg 73%
    22:00 +8°C° 0 mm 4 m/S 772 mmHg 74%
    23:00 +10°C° 0 mm 4 m/S 772 mmHg 75%

    25 September, Dienstag

    Zeit Temperatur Niederschläge Wind Luftdruck Luftfeuchtigkeit
    00:00 +10°C° 0 mm 4 m/S 772 mmHg 76%
    01:00 +10°C° 0 mm 4 m/S 772 mmHg 77%
    02:00 +10°C° 0 mm 4 m/S 773 mmHg 78%
    03:00 +10°C° 0 mm 4 m/S 773 mmHg 80%
    04:00 +10°C° 0 mm 4 m/S 773 mmHg 82%
    05:00 +9°C° 0 mm 3 m/S 773 mmHg 85%
    06:00 +9°C° 0 mm 3 m/S 773 mmHg 88%
    07:00 +11°C° 0 mm 3 m/S 774 mmHg 81%
    08:00 +13°C° 0 mm 3 m/S 774 mmHg 74%
    09:00 +16°C° 0 mm 3 m/S 774 mmHg 67%
    10:00 +16°C° 0 mm 3 m/S 774 mmHg 64%
    11:00 +17°C° 0 mm 3 m/S 774 mmHg 60%
    12:00 +18°C° 0 mm 3 m/S 774 mmHg 56%
    13:00 +18°C° 0 mm 3 m/S 774 mmHg 56%
    14:00 +18°C° 0 mm 3 m/S 773 mmHg 56%
    15:00 +18°C° 0 mm 3 m/S 773 mmHg 56%
    16:00 +17°C° 0 mm 3 m/S 773 mmHg 62%
    17:00 +15°C° 0 mm 2 m/S 773 mmHg 68%
    18:00 +14°C° 0 mm 2 m/S 773 mmHg 74%
    19:00 +13°C° 0 mm 2 m/S 773 mmHg 77%
    20:00 +12°C° 0 mm 1 m/S 773 mmHg 80%
    21:00 +12°C° 0 mm 1 m/S 773 mmHg 83%
    22:00 +11°C° 0 mm 1 m/S 773 mmHg 84%
    23:00 +11°C° 0 mm 1 m/S 773 mmHg 85%
    Mehr zeigen